C/2017 T3 ( ATLAS )

Japanese version
Home page
Updated on January 8, 2018

---------------------------------------------------------------------

* Profile

Discovery Date October 14, 2017
Magnitude 18.3 mag
Discoverer Asteroid Terrestrial-impact Last Alert System (ATLAS) search program

* Pictures

* Orbital Elements

Epoch 2018 July 21.0 TT = JDT 2458320.5
T 2018 July 19.15842 TT                                 MPCW
q   0.8253274            (2000.0)            P               Q
z  +0.0008225      Peri.  246.89053     +0.22851130     -0.60006817
 +/-0.0000405      Node   230.08840     +0.65975967     -0.48359818
e   0.9993211      Incl.   88.10641     -0.71589089     -0.63722131
From 213 observations 2017 Sept. 11-Nov. 29, mean residual 0".5.

* Finding Charts

* Magnitudes Graph

        m1 = 9.0 + 5 log d + 10.0 log r

---------------------------------------------------------------------

The orbital elements are published on M.P.E.C. 2017-X08.
The charts are made with StellaNavigator Ver.10 (AstroArts).
The magnitudes graphs are made with Comet for Windows.

---------------------------------------------------------------------

Copyright(C) Seiichi Yoshida (comet@aerith.net). All rights reserved.